sat.trackr.live / text

‹ back to catalog

STARLINK-37761

NORAD 69200 · 2026-114U

PAYLOAD ACTIVE UNKNOWN

§ Identity

Operator
Country
US
Launch date
2026-05-25
Launch site
AFETR
Launch vehicle
Mass (kg)
RCS (m²)

Purposes: comms

External: N2YO · Heavens-Above · Gunter

§ Orbital elements

Epoch: 2026-09-20T00:29:34.802880Z

Period
93.85 min
Inclination
53.1582°
Eccentricity
0.0001213
Mean motion
15.34398015 rev/d
Perigee alt
461.9 km
Apogee alt
463.5 km
Semi-major
6,840.8 km
B*
1.8203e-4
RAAN
115.8941°
Arg perigee
78.8763°
Mean anomaly
281.2376°
Rev number
1,937

§ Raw data

STARLINK-377611 69200U 26114U   26263.02054170  .00005778  00000+0  18203-3 0  99922 69200  53.1582 115.8941 0001213  78.8763 281.2376 15.34398015 19376

JSON: /api/v1/satellites/69200 · /tle

For live sub-satellite position, see the globe view (requires WebGL).

§ Visibility from observer

Set your observer location to see the next 7 days of passes ≥ 10°. The values pass through the URL so the page stays shareable.

No JS? Fill the form by hand. The geolocation button needs JavaScript.